TimeEDT,TemperatureF,Dew PointF,Humidity,Sea Level PressureIn,VisibilityMPH,Wind Direction,Wind SpeedMPH,Gust SpeedMPH,PrecipitationIn,Events,Conditions,WindDirDegrees,DateUTC
12:53 AM,66.9,60.1,79,29.95,10.0,SSW,8.1,-,N/A,,Clear,210,2013-05-11 04:53:00
1:53 AM,66.9,59.0,76,29.93,10.0,SW,6.9,-,N/A,,Mostly Cloudy,220,2013-05-11 05:53:00
2:53 AM,66.9,59.0,76,29.91,10.0,SW,8.1,-,N/A,,Scattered Clouds,220,2013-05-11 06:53:00
3:53 AM,66.0,59.0,78,29.91,10.0,SW,8.1,-,N/A,,Overcast,220,2013-05-11 07:53:00
4:53 AM,64.9,57.9,78,29.90,10.0,SW,6.9,-,N/A,,Scattered Clouds,230,2013-05-11 08:53:00
5:53 AM,62.1,57.9,86,29.90,10.0,SW,3.5,-,N/A,,Clear,230,2013-05-11 09:53:00
6:53 AM,62.1,57.9,86,29.91,10.0,Calm,Calm,-,N/A,,Clear,0,2013-05-11 10:53:00
7:53 AM,66.0,59.0,78,29.91,10.0,SSW,5.8,-,N/A,,Clear,200,2013-05-11 11:53:00
8:53 AM,71.1,61.0,70,29.91,10.0,West,8.1,-,N/A,,Clear,260,2013-05-11 12:53:00
9:53 AM,73.9,61.0,64,29.91,10.0,WSW,8.1,-,N/A,,Partly Cloudy,240,2013-05-11 13:53:00
10:53 AM,75.0,60.1,60,29.90,10.0,SW,10.4,-,N/A,,Clear,230,2013-05-11 14:53:00
11:53 AM,75.0,60.1,60,29.88,10.0,SSW,11.5,18.4,N/A,,Mostly Cloudy,200,2013-05-11 15:53:00
12:53 PM,75.0,60.1,60,29.89,10.0,SW,15.0,19.6,N/A,,Overcast,220,2013-05-11 16:53:00
1:53 PM,75.9,60.1,58,29.88,10.0,SW,15.0,21.9,N/A,,Scattered Clouds,220,2013-05-11 17:53:00
2:53 PM,72.0,64.0,76,29.88,10.0,SW,16.1,25.3,0.00,,Overcast,220,2013-05-11 18:53:00
3:53 PM,73.9,63.0,68,29.84,10.0,SW,12.7,-,N/A,,Clear,220,2013-05-11 19:53:00
4:53 PM,73.0,62.1,68,29.84,10.0,SW,12.7,25.3,N/A,,Partly Cloudy,230,2013-05-11 20:53:00
5:53 PM,75.9,61.0,60,29.82,10.0,SW,20.7,27.6,N/A,,Clear,220,2013-05-11 21:53:00
6:53 PM,73.9,60.1,62,29.82,10.0,SW,15.0,25.3,N/A,,Partly Cloudy,220,2013-05-11 22:53:00
7:53 PM,71.1,55.9,59,29.84,10.0,WNW,11.5,20.7,N/A,,Mostly Cloudy,300,2013-05-11 23:53:00
8:53 PM,63.0,59.0,87,29.84,9.0,SW,4.6,-,0.12,Rain,Light Rain,230,2013-05-12 00:53:00
9:53 PM,62.6,60.8,94,29.88,10.0,SSW,9.2,-,N/A,,Partly Cloudy,200,2013-05-12 01:53:00
10:53 PM,63.0,60.1,90,29.86,10.0,SW,6.9,-,0.00,Rain,Light Rain,220,2013-05-12 02:53:00
11:53 PM,62.1,60.1,93,29.86,10.0,West,5.8,-,0.00,,Partly Cloudy,260,2013-05-12 03:53:00